When you browse on this site, cookies collect data to enhance your experience and personalize the content and advertising you see.
Visit our Privacy Policy to learn more. By continuing to use the site, you agree to this use of cookies and data.
  • en France
  • Liste des pays
  • À 7 jours
  • Température de l'eau
  • Carte satellitaire
  • Carte météo
  • Widgets météo
  • user-avatar
    Se connecter

    Météo par heure à Strasbourg

    Ce jour, 22 Mai, Mercredi

    Heure Température Précipitation Vent Pression Humidité
    00:00 +13°C° 0.3 mm 1 m/s 750 mmHg 95%
    01:00 +13°C° 0.3 mm 1 m/s 750 mmHg 95%
    02:00 +12°C° 0.1 mm 1 m/s 751 mmHg 94%
    03:00 +12°C° 0.1 mm 1 m/s 751 mmHg 94%
    04:00 +10°C° 0.1 mm 2 m/s 751 mmHg 94%
    05:00 +10°C° 0 mm 2 m/s 751 mmHg 93%
    06:00 +12°C° 0 mm 2 m/s 751 mmHg 92%
    07:00 +12°C° 0 mm 2 m/s 751 mmHg 91%
    08:00 +13°C° 0 mm 2 m/s 751 mmHg 87%
    09:00 +14°C° 0 mm 2 m/s 751 mmHg 82%
    10:00 +14°C° 0 mm 2 m/s 752 mmHg 78%
    11:00 +15°C° 0 mm 2 m/s 752 mmHg 74%
    12:00 +16°C° 0 mm 2 m/s 752 mmHg 70%
    13:00 +17°C° 0 mm 2 m/s 752 mmHg 66%
    14:00 +17°C° 0 mm 2 m/s 751 mmHg 64%
    15:00 +18°C° 0 mm 2 m/s 751 mmHg 61%
    16:00 +19°C° 0 mm 2 m/s 751 mmHg 59%
    17:00 +19°C° 0 mm 1 m/s 751 mmHg 63%
    18:00 +19°C° 0 mm 1 m/s 751 mmHg 67%
    19:00 +16°C° 0 mm 0 m/s 751 mmHg 71%
    20:00 +14°C° 0 mm 0 m/s 752 mmHg 75%
    21:00 +14°C° 0 mm 1 m/s 752 mmHg 79%
    22:00 +12°C° 0 mm 1 m/s 752 mmHg 82%
    23:00 +12°C° 0 mm 1 m/s 752 mmHg 84%

    Demain, 23 Mai, Jeudi

    Heure Température Précipitation Vent Pression Humidité
    00:00 +11°C° 0 mm 1 m/s 753 mmHg 85%
    01:00 +10°C° 0 mm 1 m/s 753 mmHg 87%
    02:00 +10°C° 0 mm 1 m/s 753 mmHg 87%
    03:00 +10°C° 0 mm 1 m/s 752 mmHg 88%
    04:00 +8°C° 0 mm 0 m/s 752 mmHg 88%
    05:00 +10°C° 0 mm 0 m/s 752 mmHg 84%
    06:00 +11°C° 0 mm 0 m/s 752 mmHg 81%
    07:00 +13°C° 0 mm 0 m/s 752 mmHg 77%
    08:00 +14°C° 0 mm 0 m/s 752 mmHg 70%
    09:00 +16°C° 0 mm 0 m/s 752 mmHg 64%
    10:00 +18°C° 0 mm 0 m/s 752 mmHg 57%
    11:00 +21°C° 0 mm 1 m/s 752 mmHg 54%
    12:00 +22°C° 0 mm 1 m/s 752 mmHg 52%
    13:00 +23°C° 0 mm 1 m/s 751 mmHg 49%
    14:00 +23°C° 0 mm 2 m/s 751 mmHg 50%
    15:00 +23°C° 0 mm 2 m/s 751 mmHg 50%
    16:00 +24°C° 0 mm 2 m/s 750 mmHg 51%
    17:00 +23°C° 0 mm 2 m/s 750 mmHg 56%
    18:00 +21°C° 0 mm 2 m/s 750 mmHg 62%
    19:00 +20°C° 0 mm 2 m/s 750 mmHg 67%
    20:00 +19°C° 0 mm 1 m/s 750 mmHg 71%
    21:00 +16°C° 0 mm 1 m/s 750 mmHg 74%
    22:00 +14°C° 0 mm 1 m/s 751 mmHg 78%
    23:00 +14°C° 0 mm 1 m/s 750 mmHg 79%

    Après-demain, 24 Mai, Vendredi

    Heure Température Précipitation Vent Pression Humidité
    00:00 +13°C° 0 mm 1 m/s 750 mmHg 81%
    01:00 +12°C° 0 mm 0 m/s 750 mmHg 82%
    02:00 +11°C° 0 mm 0 m/s 750 mmHg 83%
    03:00 +11°C° 0 mm 0 m/s 750 mmHg 84%
    04:00 +11°C° 0 mm 0 m/s 750 mmHg 85%
    05:00 +12°C° 0 mm 0 m/s 750 mmHg 82%
    06:00 +13°C° 0 mm 0 m/s 750 mmHg 79%
    07:00 +15°C° 0 mm 0 m/s 750 mmHg 75%
    08:00 +16°C° 0 mm 0 m/s 750 mmHg 70%
    09:00 +20°C° 0 mm 1 m/s 750 mmHg 65%
    10:00 +22°C° 0 mm 1 m/s 750 mmHg 60%
    11:00 +23°C° 0 mm 1 m/s 749 mmHg 57%
    12:00 +24°C° 0 mm 1 m/s 749 mmHg 53%
    13:00 +24°C° 0 mm 1 m/s 749 mmHg 50%
    14:00 +25°C° 0 mm 1 m/s 749 mmHg 50%
    15:00 +25°C° 0 mm 1 m/s 748 mmHg 50%
    16:00 +25°C° 0 mm 2 m/s 748 mmHg 50%
    17:00 +24°C° 0 mm 2 m/s 748 mmHg 55%
    18:00 +23°C° 0 mm 2 m/s 748 mmHg 61%
    19:00 +21°C° 0 mm 2 m/s 748 mmHg 67%
    20:00 +19°C° 0 mm 2 m/s 748 mmHg 72%
    21:00 +18°C° 0 mm 1 m/s 748 mmHg 78%
    22:00 +15°C° 0 mm 1 m/s 749 mmHg 83%
    23:00 +15°C° 0 mm 1 m/s 749 mmHg 85%

    25 Mai, Samedi

    Heure Température Précipitation Vent Pression Humidité
    00:00 +14°C° 0 mm 1 m/s 749 mmHg 86%
    01:00 +14°C° 0 mm 1 m/s 749 mmHg 87%
    02:00 +13°C° 0 mm 1 m/s 749 mmHg 88%
    03:00 +13°C° 0 mm 1 m/s 749 mmHg 89%
    04:00 +12°C° 0 mm 1 m/s 749 mmHg 90%
    05:00 +14°C° 0 mm 1 m/s 749 mmHg 87%
    06:00 +15°C° 0 mm 1 m/s 749 mmHg 84%
    07:00 +16°C° 0 mm 1 m/s 749 mmHg 81%
    08:00 +18°C° 0 mm 1 m/s 749 mmHg 76%
    09:00 +20°C° 0 mm 1 m/s 750 mmHg 71%
    10:00 +20°C° 0 mm 2 m/s 750 mmHg 66%
    11:00 +21°C° 0.2 mm 2 m/s 750 mmHg 65%
    12:00 +21°C° 0.2 mm 2 m/s 749 mmHg 64%
    13:00 +22°C° 0.2 mm 3 m/s 749 mmHg 62%
    14:00 +22°C° 0.2 mm 3 m/s 749 mmHg 61%
    15:00 +22°C° 0.2 mm 3 m/s 749 mmHg 60%
    16:00 +22°C° 0.2 mm 3 m/s 749 mmHg 59%
    17:00 +23°C° 0.1 mm 2 m/s 749 mmHg 62%
    18:00 +21°C° 0.1 mm 2 m/s 749 mmHg 65%
    19:00 +21°C° 0.1 mm 1 m/s 749 mmHg 69%
    20:00 +19°C° 0 mm 1 m/s 750 mmHg 73%
    21:00 +16°C° 0 mm 1 m/s 750 mmHg 77%
    22:00 +15°C° 0 mm 1 m/s 750 mmHg 82%
    23:00 +14°C° 0 mm 1 m/s 750 mmHg 84%

    26 Mai, Dimanche

    Heure Température Précipitation Vent Pression Humidité
    00:00 +14°C° 0 mm 1 m/s 750 mmHg 86%
    01:00 +12°C° 0 mm 0 m/s 750 mmHg 87%
    02:00 +13°C° 0 mm 1 m/s 750 mmHg 88%
    03:00 +12°C° 0 mm 1 m/s 750 mmHg 90%
    04:00 +12°C° 0 mm 1 m/s 750 mmHg 91%
    05:00 +13°C° 0 mm 1 m/s 750 mmHg 88%
    06:00 +14°C° 0 mm 1 m/s 750 mmHg 86%
    07:00 +15°C° 0 mm 1 m/s 750 mmHg 84%
    08:00 +17°C° 0 mm 2 m/s 750 mmHg 80%
    09:00 +18°C° 0 mm 2 m/s 751 mmHg 76%
    10:00 +19°C° 0 mm 2 m/s 751 mmHg 71%
    11:00 +20°C° 0.1 mm 3 m/s 750 mmHg 67%
    12:00 +21°C° 0.1 mm 3 m/s 750 mmHg 62%
    13:00 +22°C° 0.1 mm 4 m/s 750 mmHg 58%
    14:00 +22°C° 0.1 mm 4 m/s 750 mmHg 61%
    15:00 +21°C° 0.1 mm 4 m/s 750 mmHg 63%
    16:00 +21°C° 0.1 mm 4 m/s 750 mmHg 66%
    17:00 +21°C° 0.1 mm 3 m/s 750 mmHg 71%
    18:00 +20°C° 0.1 mm 3 m/s 749 mmHg 76%
    19:00 +19°C° 0.1 mm 2 m/s 749 mmHg 80%
    20:00 +18°C° 0 mm 2 m/s 749 mmHg 84%
    21:00 +18°C° 0 mm 1 m/s 750 mmHg 87%
    22:00 +15°C° 0 mm 1 m/s 750 mmHg 90%
    23:00 +15°C° 0 mm 1 m/s 750 mmHg 91%

    27 Mai, Lundi

    Heure Température Précipitation Vent Pression Humidité
    00:00 +15°C° 0 mm 2 m/s 750 mmHg 92%
    01:00 +14°C° 0 mm 2 m/s 750 mmHg 92%
    02:00 +14°C° 0 mm 2 m/s 750 mmHg 92%
    03:00 +14°C° 0 mm 2 m/s 749 mmHg 93%
    04:00 +14°C° 0 mm 2 m/s 749 mmHg 93%
    05:00 +15°C° 0 mm 2 m/s 749 mmHg 91%
    06:00 +16°C° 0 mm 2 m/s 749 mmHg 89%
    07:00 +17°C° 0 mm 2 m/s 749 mmHg 87%
    08:00 +18°C° 0.1 mm 2 m/s 749 mmHg 84%
    09:00 +18°C° 0.1 mm 2 m/s 749 mmHg 81%
    10:00 +19°C° 0.1 mm 3 m/s 749 mmHg 78%
    11:00 +20°C° 0.1 mm 3 m/s 749 mmHg 74%
    12:00 +21°C° 0.1 mm 3 m/s 749 mmHg 70%
    13:00 +22°C° 0.1 mm 3 m/s 748 mmHg 66%
    14:00 +22°C° 0.4 mm 3 m/s 748 mmHg 67%
    15:00 +22°C° 0.4 mm 3 m/s 748 mmHg 68%
    16:00 +22°C° 0.4 mm 3 m/s 747 mmHg 69%
    17:00 +21°C° 0.5 mm 2 m/s 747 mmHg 74%
    18:00 +21°C° 0.5 mm 2 m/s 747 mmHg 79%
    19:00 +20°C° 0.5 mm 2 m/s 747 mmHg 84%
    20:00 +19°C° 0.1 mm 1 m/s 748 mmHg 86%
    21:00 +18°C° 0.1 mm 1 m/s 748 mmHg 88%
    22:00 +15°C° 0.1 mm 0 m/s 748 mmHg 89%
    23:00 +15°C° 0 mm 0 m/s 748 mmHg 90%
    Voir plus